YD2APR-13 Weather Reports


Display with metric or nautical units.
time (UTC)temp
F
wind
direction
speed
MPH
gust
MPH
rain 1hr
in
rain 24hr
in
rain mn
in
humidity
%
barometer
mb
20260508194157 74 0.0 0.0 0.00 0.00 0.00 89 1014.8
20260508193157 74 0.0 0.0 0.00 0.00 0.00 89 1014.7
20260508192157 74 0.0 0.0 0.00 0.00 0.00 89 1014.7
20260508191157 74 0.0 0.0 0.00 0.00 0.00 89 1014.7
20260508190157 74 0.0 0.0 0.00 0.00 0.00 89 1014.7
20260508185157 74 0.0 0.0 0.00 0.00 0.00 89 1014.8
20260508184157 74 0.0 0.0 0.00 0.00 0.00 89 1014.8
20260508183157 74 0.0 0.0 0.00 0.00 0.00 89 1014.7
20260508182157 74 0.0 0.0 0.00 0.00 0.00 88 1014.8
20260508181157 75 0.0 0.0 0.00 0.00 0.00 88 1014.9
20260508180157 75 0.0 0.0 0.00 0.00 0.00 87 1015.0
20260508175157 75 0.0 0.0 0.00 0.00 0.00 87 1015.0
20260508174157 75 0.0 0.0 0.00 0.00 0.00 86 1015.0
20260508173157 75 0.0 0.0 0.00 0.00 0.00 86 1015.1
20260508172157 76 0.0 0.0 0.00 0.00 0.00 86 1015.2
20260508171157 76 0.0 0.0 0.00 0.00 0.00 85 1015.4
20260508170157 76 0.0 0.0 0.00 0.00 0.00 83 1015.5
20260508165157 77 0.0 0.0 0.00 0.00 0.00 83 1015.6
20260508164157 77 0.0 0.0 0.00 0.00 0.00 82 1015.7
20260508163157 77 0.0 0.0 0.00 0.00 0.00 83 1015.9
20260508162157 77 0.0 0.0 0.00 0.00 0.00 83 1015.9
20260508161157 77 0.0 0.0 0.00 0.00 0.00 83 1016.0
20260508160157 77 0.0 0.0 0.00 0.00 0.00 83 1016.0
20260508155157 77 0.0 0.0 0.00 0.00 0.00 82 1015.9
20260508154157 77 0.0 0.0 0.00 0.00 0.00 79 1015.9
20260508153157 78 0.0 0.0 0.00 0.00 0.00 76 1015.9
20260508152157 78 0.0 0.0 0.00 0.00 0.00 75 1015.9
20260508151156 78 0.0 0.0 0.00 0.00 0.00 75 1015.9
20260508150157 78 0.0 0.0 0.00 0.00 0.00 76 1015.8
20260508145157 78 0.0 0.0 0.00 0.00 0.00 76 1015.8
20260508144157 78 0.0 0.0 0.00 0.00 0.00 76 1015.8
20260508143157 78 0.0 0.0 0.00 0.00 0.00 76 1015.7
20260508142157 78 0.0 0.0 0.00 0.00 0.00 76 1015.7
20260508141157 78 0.0 0.0 0.00 0.00 0.00 76 1015.6
20260508140157 78 0.0 0.0 0.00 0.00 0.00 76 1015.6
20260508135157 79 0.0 0.0 0.00 0.00 0.00 76 1015.5
20260508134157 79 0.0 0.0 0.00 0.00 0.00 75 1015.4
20260508133157 79 0.0 0.0 0.00 0.00 0.00 75 1015.4
20260508132156 79 0.0 0.0 0.00 0.00 0.00 75 1015.4
20260508131156 80 0.0 0.0 0.00 0.00 0.00 74 1015.3
20260508130157 80 0.0 0.0 0.00 0.00 0.00 74 1015.1
20260508125156 80 0.0 0.0 0.00 0.00 0.00 74 1015.0
20260508124156 79 0.0 0.0 0.00 0.00 0.00 76 1015.0
20260508123156 79 0.0 0.0 0.00 0.00 0.00 77 1014.9
20260508122156 79 0.0 0.0 0.00 0.00 0.00 76 1014.7
20260508121156 80 0.0 0.0 0.00 0.00 0.00 75 1014.5
20260508120156 81 0.0 0.0 0.00 0.00 0.00 72 1014.4
20260508115156 81 0.0 0.0 0.00 0.00 0.00 72 1014.2
20260508114156 81 0.0 0.0 0.00 0.00 0.00 72 1014.1
20260508113156 81 0.0 0.0 0.00 0.00 0.00 72 1014.0
20260508112156 80 0.0 0.0 0.00 0.00 0.00 74 1013.8
20260508111156 81 0.0 0.0 0.00 0.00 0.00 74 1013.7
20260508110156 81 0.0 0.0 0.00 0.00 0.00 74 1013.6
20260508105156 81 0.0 0.0 0.00 0.00 0.00 73 1013.4
20260508104156 82 0.0 0.0 0.00 0.00 0.00 72 1013.3
20260508103156 82 0.0 0.0 0.00 0.00 0.00 70 1013.2
20260508102156 83 0.0 0.0 0.00 0.00 0.00 69 1013.1
20260508101156 83 0.0 0.0 0.00 0.00 0.00 69 1013.1
20260508100156 83 0.0 0.0 0.00 0.00 0.00 67 1012.9
20260508095156 84 0.0 0.0 0.00 0.00 0.00 66 1012.8
20260508094156 84 0.0 0.0 0.00 0.00 0.00 66 1012.7
20260508093156 84 0.0 0.0 0.00 0.00 0.00 64 1012.6
20260508092156 84 0.0 0.0 0.00 0.00 0.00 63 1012.7
20260508091156 85 0.0 0.0 0.00 0.00 0.00 62 1012.6
20260508090156 85 0.0 0.0 0.00 0.00 0.00 62 1012.5
20260508085156 86 0.0 0.0 0.00 0.00 0.00 60 1012.4
20260508084156 88 0.0 0.0 0.00 0.00 0.00 57 1012.1
20260508083156 88 0.0 0.0 0.00 0.00 0.00 55 1012.2
20260508082156 89 0.0 0.0 0.00 0.00 0.00 54 1012.3
20260508081156 89 0.0 0.0 0.00 0.00 0.00 53 1012.2
20260508080155 89 0.0 0.0 0.00 0.00 0.00 55 1012.2
20260508075156 89 0.0 0.0 0.00 0.00 0.00 55 1012.2
20260508074156 92 0.0 0.0 0.00 0.00 0.00 51 1012.2
20260508073156 93 0.0 0.0 0.00 0.00 0.00 51 1012.2
20260508072156 92 0.0 0.0 0.00 0.00 0.00 52 1012.2
20260508071156 91 0.0 0.0 0.00 0.00 0.00 53 1012.3
20260508070156 90 0.0 0.0 0.00 0.00 0.00 54 1012.3
20260508065156 89 0.0 0.0 0.00 0.00 0.00 57 1012.2
20260508064156 90 0.0 0.0 0.00 0.00 0.00 55 1012.2
20260508063156 92 0.0 0.0 0.00 0.00 0.00 51 1012.3
20260508062156 92 0.0 0.0 0.00 0.00 0.00 50 1012.4
20260508061156 92 0.0 0.0 0.00 0.00 0.00 50 1012.5
20260508060156 93 0.0 0.0 0.00 0.00 0.00 49 1012.6
20260508055155 93 0.0 0.0 0.00 0.00 0.00 50 1012.6
20260508054156 93 0.0 0.0 0.00 0.00 0.00 50 1012.8
20260508053156 92 0.0 0.0 0.00 0.00 0.00 50 1012.9
20260508052156 91 0.0 0.0 0.00 0.00 0.00 51 1013.1
20260508051156 91 0.0 0.0 0.00 0.00 0.00 50 1013.2
20260508050156 91 0.0 0.0 0.00 0.00 0.00 50 1013.3
20260508045156 91 0.0 0.0 0.00 0.00 0.00 49 1013.5
20260508044155 90 0.0 0.0 0.00 0.00 0.00 51 1013.6
20260508043157 90 0.0 0.0 0.00 0.00 0.00 49 1013.7
20260508042156 90 0.0 0.0 0.00 0.00 0.00 50 1013.7
20260508041155 90 0.0 0.0 0.00 0.00 0.00 50 1013.9
20260508040155 89 0.0 0.0 0.00 0.00 0.00 49 1014.0
20260508035155 89 0.0 0.0 0.00 0.00 0.00 50 1014.2
20260508034155 89 0.0 0.0 0.00 0.00 0.00 50 1014.3
20260508033155 88 0.0 0.0 0.00 0.00 0.00 50 1014.4
20260508032155 88 0.0 0.0 0.00 0.00 0.00 50 1014.5
20260508031155 87 0.0 0.0 0.00 0.00 0.00 51 1014.5
20260508030155 87 0.0 0.0 0.00 0.00 0.00 52 1014.6
20260508025155 86 0.0 0.0 0.00 0.00 0.00 53 1014.6
20260508024155 86 0.0 0.0 0.00 0.00 0.00 53 1014.7
20260508023155 86 0.0 0.0 0.00 0.00 0.00 54 1014.9
20260508022155 85 0.0 0.0 0.00 0.00 0.00 54 1014.9
20260508021155 86 0.0 0.0 0.00 0.00 0.00 54 1015.0
20260508020155 85 0.0 0.0 0.00 0.00 0.00 56 1015.1
20260508015155 84 0.0 0.0 0.00 0.00 0.00 58 1015.2
20260508014155 83 0.0 0.0 0.00 0.00 0.00 59 1015.2
20260508013155 83 0.0 0.0 0.00 0.00 0.00 60 1015.1
20260508012155 83 0.0 0.0 0.00 0.00 0.00 61 1015.1
20260508011155 83 0.0 0.0 0.00 0.00 0.00 62 1015.1
20260508010155 82 0.0 0.0 0.00 0.00 0.00 63 1015.1
20260508005155 81 0.0 0.0 0.00 0.00 0.00 65 1015.0
20260508004155 81 0.0 0.0 0.00 0.00 0.00 67 1015.0
20260508003155 79 0.0 0.0 0.00 0.00 0.00 68 1014.9
20260508002155 79 0.0 0.0 0.00 0.00 0.00 69 1014.8
20260508001155 78 0.0 0.0 0.00 0.00 0.00 69 1014.8
20260508000155 77 0.0 0.0 0.00 0.00 0.00 71 1014.8
20260507235155 77 0.0 0.0 0.00 0.00 0.00 72 1014.6
20260507234155 77 0.0 0.0 0.00 0.00 0.00 72 1014.6
20260507233155 76 0.0 0.0 0.00 0.00 0.00 74 1014.5
20260507232155 75 0.0 0.0 0.00 0.00 0.00 75 1014.4
20260507231155 75 0.0 0.0 0.00 0.00 0.00 75 1014.4
20260507230155 74 0.0 0.0 0.00 0.00 0.00 76 1014.3
20260507225155 74 0.0 0.0 0.00 0.00 0.00 76 1014.2
20260507224155 74 0.0 0.0 0.00 0.00 0.00 77 1014.1
20260507223155 73 0.0 0.0 0.00 0.00 0.00 80 1014.1
20260507222155 73 0.0 0.0 0.00 0.00 0.00 83 1014.0
20260507221155 73 0.0 0.0 0.00 0.00 0.00 84 1013.9
20260507220155 73 0.0 0.0 0.00 0.00 0.00 83 1013.9
20260507215155 73 0.0 0.0 0.00 0.00 0.00 82 1013.9
20260507214155 73 0.0 0.0 0.00 0.00 0.00 82 1014.0
20260507213155 73 0.0 0.0 0.00 0.00 0.00 83 1014.0
20260507212155 73 0.0 0.0 0.00 0.00 0.00 84 1014.0
20260507211155 73 0.0 0.0 0.00 0.00 0.00 84 1014.0
20260507210155 73 0.0 0.0 0.00 0.00 0.00 85 1014.0
20260507205155 73 0.0 0.0 0.00 0.00 0.00 85 1014.0
20260507204155 73 0.0 0.0 0.00 0.00 0.00 86 1014.0
20260507203155 73 0.0 0.0 0.00 0.00 0.00 86 1014.1
20260507202155 74 0.0 0.0 0.00 0.00 0.00 84 1014.2
20260507201155 74 0.0 0.0 0.00 0.00 0.00 84 1014.2
20260507200155 74 0.0 0.0 0.00 0.00 0.00 83 1014.3
20260507195155 75 0.0 0.0 0.00 0.00 0.00 83 1014.4